Regional Weather Roundup
Issued by NWS

Home | Current Version | Previous Version | Text Only | Print | Product List | Glossary On
Versions: 1 2 3 4 5 6 7 8 9 10 11 12 13 14 15 16 17 18 19 20 21 22 23 24 25 26 27 28 29 30 31 32 33 34 35 36 37 38 39 40 41 42 43 44 45 46 47 48 49 50
000
ASUS44 KMEG 052110
RWRTN
TENNESSEE HOURLY STATE WEATHER ROUNDUP
NATIONAL WEATHER SERVICE MEMPHIS TN
400 PM CDT SUN JUL 05 2015

TNZ002-004-019-021-049-052-054-088>092-052200-
WEST TENNESSEE

CITY           SKY/WX    TMP DP  RH WIND       PRES   REMARKS
MEMPHIS INTL   PTSUNNY   83  70  64 SW8       30.05F
NWS MEMPHIS      N/A     82 N/A N/A MISG        N/A
JACKSON        MOSUNNY   85  71  63 SW8       30.04F HX  90
DYERSBURG        N/A    N/A N/A N/A MISG        N/A
PARIS          MOSUNNY   82  66  57 CALM      30.05F
LEXINGTON      PTSUNNY   81  70  69 SW7       30.05F
$$

TNZ008-025-027-028-033-062-065-066-052200-
NORTH MIDDLE TENNESSEE

CITY           SKY/WX    TMP DP  RH WIND       PRES   REMARKS
NASHVILLE      PTSUNNY   85  68  56 W8        30.06F
CLARKSVILLE    SUNNY     84  63  49 W7        30.05F
SMYRNA         PTSUNNY   87  71  58 VRB7      30.07F HX  92
COOKEVILLE     SUNNY     82  72  69 W3        30.07F
CROSSVILLE     PTSUNNY   78  63  59 W15G23    30.11S
$$

TNZ061-075-076-078-094-096-097-052200-
SOUTH MIDDLE TENNESSEE

CITY           SKY/WX    TMP DP  RH WIND       PRES   REMARKS
FAYETTEVILLE   MOSUNNY   79  68  69 SW10      30.09F
TULLAHOMA      PTSUNNY   79  68  69 SW7       30.09F
WINCHESTER     MOSUNNY   81  70  69 W9        30.09F
MCMINNVILLE    MOSUNNY   79  68  69 W5        30.09S
COLUMBIA       PTSUNNY   84  73  70 S9        30.06F HX  91
SHELBYVILLE    MOSUNNY   84  73  70 SW7         N/A  HX  91
$$

TNZ017-018-042-046-047-052200-
NORTHEAST TENNESSEE

CITY           SKY/WX    TMP DP  RH WIND       PRES   REMARKS
TRI CITIES     PTSUNNY   79  66  64 W5        30.05R THUNDER
ELIZABETHTON   CLOUDY    75  66  73 W9        30.05R
$$

TNZ012-013-036-069-073-074-052200-
CENTRAL EAST TENNESSEE

CITY           SKY/WX    TMP DP  RH WIND       PRES   REMARKS
KNOXVILLE      CLOUDY    74  67  78 SW8       30.05F
OAK RIDGE      PTSUNNY   77  67  71 VRB6      30.07R
GATLINBURG     MOCLDY    79  66  65 W12       30.04S
MORRISTOWN     CLEAR     77  66  69 W12       30.06R
$$

TNZ083-085-099-052200-
SOUTHEAST TENNESSEE

CITY           SKY/WX    TMP DP  RH WIND       PRES   REMARKS
CHATTANOOGA    PTSUNNY   84  67  56 SW13      30.07F
$$

SKY/WX REPORTED AS FAIR MEANS FEW OR NO CLOUDS BELOW
12 THOUSAND FEET.



USA.gov is the U.S. government's official web portal to all federal, state and local government web resources and services.